Powrót do katalogu

USA 17

AktywnyMilitariaLEO
NORAD 16625·PAYLOAD·🇺🇸 United States

Wystrzelony Feb 9, 1986 z Vandenberg Space Force Base

Loading…

Następne Przeloty (najbliższe 24 godziny)

TLE

ŚwieżeSource: Space-Track

Epoka: Sep 14, 2026, 07:02 UTC

1 16625U 86014F   26257.29339848  .00002077  00000-0  21510-3 0  9995
2 16625  63.3014 216.2184 0778729 117.3273 250.9223 13.75152525355076

Śledź USA 17 w czasie rzeczywistym z AllMySat

Download on the App Store